This demonstration page uses our WeatherBlox Daily Observations layout. Learn more.

Left ArrowRight Arrow

Hourly Observations for May 30, 2021

Temp ( °F °C ) Dew Point ( °F °C ) Humidity (%) Winds ( mph kmh ) Pressure ( in mb ) Visibility ( mi km ) Precip ( " mm )
12:56 am 00:56 Cloudy 55 12.8 48 8.9 77 77 SSE 12 19 30.14 1021 10 16 0.00 0.00
1:56 am 01:56 Cloudy with Light Rain 53 11.7 49 9.4 86 86 SSE 9 15 30.13 1020 10 16 0.01 0.25
2:56 am 02:56 Cloudy 53 11.7 50 10 89 89 SSE 7 11 30.16 1021 10 16 0.00 0.00
3:56 am 03:56 Cloudy 53 11.7 50 10 89 89 SE 5 7 30.17 1022 10 16 0.00 0.00
4:56 am 04:56 Cloudy with Light Rain 53 11.7 50 10 89 89 ESE 7 11 30.17 1022 10 16 0.00 0.00
5:18 am 05:18 Cloudy with Light Rain 52 11 50 10 94 94 SE 6 9 30.19 1022 7 11 0.02 0.51
5:33 am 05:33 Cloudy with Light Rain 52 11 50 10 94 94 SE 8 13 30.19 1022 10 16 0.00 0.00
5:46 am 05:46 Cloudy with Light Rain 52 11 50 10 94 94 ESE 9 15 30.18 1022 10 16 0.04 1.02
5:56 am 05:56 Cloudy with Light Rain 52 11.1 50 10 93 93 ESE 8 13 30.17 1022 7 11 0.05 1.27
6:11 am 06:11 Cloudy with Light Rain 52 11 50 10 94 94 ESE 7 11 30.18 1022 7 11 0.01 0.25
6:35 am 06:35 Cloudy with Light Rain 52 11 52 11 100 100 ESE 8 13 30.17 1022 10 16 0.00 0.00
6:56 am 06:56 Cloudy with Light Rain 51 10.6 50 10 96 96 ESE 8 13 30.16 1022 10 16 0.04 1.02
7:56 am 07:56 Cloudy with Light Rain 51 10.6 50 10 96 96 ESE 12 19 30.17 1022 8 13 0.03 0.76
8:54 am 08:54 Cloudy with Heavy Rain 52 11 50 10 94 94 SE 8 13 30.20 1023 2 3 0.17 4.32
8:55 am 08:55 Cloudy with Heavy Rain 51 10.6 50 10 96 96 SE 8 13 30.19 1022 2 3 0.18 4.57
9:05 am 09:05 Cloudy with Light Rain 52 11 50 10 94 94 SE 8 13 30.20 1023 3 5 0.05 1.27
9:56 am 09:56 Cloudy with Light Rain 52 11.1 51 10.6 97 97 SE 10 17 30.19 1022 6 10 0.17 4.32
10:56 am 10:56 Cloudy with Light Rain 52 11.1 51 10.6 97 97 SE 6 9 30.18 1022 4 6 0.16 4.06
11:36 am 11:36 Cloudy with Light Rain 54 12 52 11 94 94 SSE 7 11 30.19 1022 10 16 0.03 0.76
11:56 am 11:56 Cloudy with Light Rain 53 11.7 52 11.1 96 96 SSE 6 9 30.20 1023 10 16 0.03 0.76
12:48 pm 12:48 Cloudy with Light Rain 54 12 52 11 94 94 SE 6 9 30.19 1022 10 16 0.01 0.25
12:56 pm 12:56 Cloudy with Light Rain 54 12.2 53 11.7 97 97 SE 6 9 30.19 1023 10 16 0.01 0.25
1:13 pm 13:13 Cloudy with Light Rain 54 12 54 12 100 100 SSE 5 7 30.19 1022 10 16 0.00 0.00
1:56 pm 13:56 Cloudy with Light Rain 55 12.8 53 11.7 93 93 E 7 11 30.19 1022 9 14 0.00 0.00
2:12 pm 14:12 Cloudy with Light Rain 55 13 54 12 94 94 E 7 11 30.18 1022 2 3 0.01 0.25
2:35 pm 14:35 Cloudy with Light Rain 55 13 55 13 100 100 ESE 9 15 30.18 1022 2 3 0.01 0.25
2:46 pm 14:46 Cloudy with Light Rain 55 13 54 12 94 94 ESE 10 17 30.18 1022 3 5 0.02 0.51
2:56 pm 14:56 Cloudy with Light Rain 56 13.3 55 12.8 97 97 ESE 10 17 30.19 1023 5 8 0.02 0.51
3:43 pm 15:43 Cloudy 55 13 54 12 94 94 ESE 9 15 30.17 1022 10 16 0.00 0.00
3:56 pm 15:56 Cloudy 56 13.3 54 12.2 93 93 ESE 10 17 30.19 1022 10 16 0.00 0.00
4:56 pm 16:56 Cloudy 55 12.8 53 11.7 93 93 ESE 12 19 30.19 1022 10 16 0.00 0.00
5:56 pm 17:56 Cloudy 55 12.8 52 11.1 90 90 ESE 8 13 30.20 1023 10 16 0.00 0.00
6:02 pm 18:02 Cloudy 55 13 52 11 88 88 SE 9 15 30.18 1022 10 16 0.00 0.00
6:13 pm 18:13 Cloudy 55 13 52 11 88 88 ESE 8 13 30.18 1022 10 16 0.00 0.00
6:56 pm 18:56 Cloudy 55 12.8 52 11.1 90 90 E 6 9 30.19 1022 10 16 0.00 0.00
7:56 pm 19:56 Cloudy 55 12.8 52 11.1 90 90 E 5 7 30.20 1023 10 16 0.00 0.00
8:56 pm 20:56 Cloudy 54 12.2 51 10.6 90 90 SE 5 7 30.22 1024 10 16 0.00 0.00
9:08 pm 21:08 Cloudy 54 12 52 11 94 94 SE 5 7 30.21 1023 10 16 0.00 0.00
9:56 pm 21:56 Mostly Cloudy 53 11.7 51 10.6 93 93 SSE 3 6 30.23 1024 10 16 0.00 0.00
10:56 pm 22:56 Cloudy 54 12.2 52 11.1 93 93 Calm 30.24 1024 10 16 0.00 0.00
11:33 pm 23:33 Partly Cloudy 54 12 52 11 94 94 Calm 30.23 1024 10 16 0.00 0.00
11:56 pm 23:56 Clear 54 12.2 51 10.6 90 90 Calm 30.24 1024 10 16 0.00 0.00

Powered by AerisWeather